TimeEDT,TemperatureF,Dew PointF,Humidity,Sea Level PressureIn,VisibilityMPH,Wind Direction,Wind SpeedMPH,Gust SpeedMPH,PrecipitationIn,Events,Conditions,WindDirDegrees,DateUTC
12:14 AM,67.5,64.0,89,29.99,10.0,SW,4.6,-,N/A,,Clear,230,2013-08-30 04:14:00
12:33 AM,69.1,65.3,88,29.98,10.0,SSW,4.6,-,N/A,,Clear,200,2013-08-30 04:33:00
12:54 AM,69.8,64.8,84,29.97,10.0,SSW,4.6,-,N/A,,Clear,200,2013-08-30 04:54:00
1:14 AM,67.8,63.9,87,29.98,10.0,SW,4.6,-,N/A,,Clear,230,2013-08-30 05:14:00
1:33 AM,69.8,65.3,86,29.96,10.0,SW,4.6,-,N/A,,Clear,220,2013-08-30 05:33:00
1:54 AM,69.1,66.0,90,29.97,10.0,WSW,4.6,-,N/A,,Clear,250,2013-08-30 05:54:00
2:14 AM,69.8,66.4,89,29.97,7.0,WSW,4.6,-,N/A,,Clear,240,2013-08-30 06:14:00
2:33 AM,69.4,66.7,91,29.96,7.0,SW,5.8,-,N/A,,Clear,230,2013-08-30 06:33:00
2:54 AM,70.3,67.8,92,29.96,7.0,SW,5.8,-,N/A,,Clear,220,2013-08-30 06:54:00
3:14 AM,69.8,67.8,93,29.97,7.0,West,4.6,-,N/A,,Clear,260,2013-08-30 07:14:00
3:33 AM,70.3,68.0,92,29.96,7.0,WSW,5.8,-,N/A,,Clear,240,2013-08-30 07:33:00
3:54 AM,70.9,66.7,87,29.95,10.0,WSW,8.1,-,N/A,,Clear,240,2013-08-30 07:54:00
4:14 AM,71.2,65.8,83,29.95,10.0,WSW,8.1,-,N/A,,Clear,240,2013-08-30 08:14:00
4:33 AM,71.4,65.3,81,29.93,10.0,SSW,5.8,-,N/A,,Clear,210,2013-08-30 08:33:00
4:54 AM,71.6,65.1,80,29.92,10.0,SSW,4.6,-,N/A,,Clear,200,2013-08-30 08:54:00
5:14 AM,71.1,65.3,82,29.90,10.0,SSW,5.8,-,N/A,,Scattered Clouds,200,2013-08-30 09:14:00
5:33 AM,70.9,65.5,83,29.89,10.0,SSW,8.1,-,N/A,,Scattered Clouds,200,2013-08-30 09:33:00
5:54 AM,70.9,65.5,83,29.89,10.0,South,6.9,-,N/A,,Clear,190,2013-08-30 09:54:00
6:14 AM,70.9,65.7,83,29.89,10.0,SSW,8.1,-,N/A,,Clear,210,2013-08-30 10:14:00
6:33 AM,70.2,65.7,86,29.90,10.0,SW,8.1,-,N/A,,Mostly Cloudy,220,2013-08-30 10:33:00
6:54 AM,70.3,66.2,87,29.90,10.0,SSW,5.8,-,N/A,Rain,Light Rain,210,2013-08-30 10:54:00
7:14 AM,70.0,66.2,88,29.90,10.0,SSW,8.1,-,N/A,Rain,Light Rain,200,2013-08-30 11:14:00
7:33 AM,69.4,66.6,91,29.89,10.0,SSW,8.1,-,N/A,Rain,Light Rain,200,2013-08-30 11:33:00
7:54 AM,69.8,66.4,89,29.88,10.0,SSW,6.9,-,N/A,,Overcast,200,2013-08-30 11:54:00
8:14 AM,70.2,66.9,89,29.86,10.0,SSW,8.1,-,N/A,,Scattered Clouds,200,2013-08-30 12:14:00
8:33 AM,71.6,67.6,87,29.86,10.0,SSW,10.4,-,N/A,,Clear,210,2013-08-30 12:33:00
8:54 AM,74.7,68.7,82,29.86,10.0,SW,13.8,-,N/A,,Clear,220,2013-08-30 12:54:00
9:13 AM,74.8,68.0,79,29.85,10.0,SW,12.7,-,N/A,,Clear,220,2013-08-30 13:13:00
9:34 AM,75.4,68.0,78,29.85,10.0,SW,11.5,-,N/A,,Clear,220,2013-08-30 13:34:00
9:54 AM,75.2,67.8,78,29.84,10.0,SSW,12.7,-,N/A,,Clear,210,2013-08-30 13:54:00
10:13 AM,76.8,68.2,75,29.84,10.0,SW,13.8,21.9,N/A,,Clear,220,2013-08-30 14:13:00
10:34 AM,80.6,67.8,65,29.83,10.0,SW,15.0,20.7,N/A,,Clear,220,2013-08-30 14:34:00
10:54 AM,81.7,67.3,61,29.82,10.0,SW,13.8,-,N/A,,Clear,220,2013-08-30 14:54:00
11:13 AM,81.1,66.6,61,29.83,10.0,SW,16.1,-,N/A,,Clear,230,2013-08-30 15:13:00
11:34 AM,79.9,65.8,62,29.83,10.0,SW,15.0,-,N/A,,Clear,220,2013-08-30 15:34:00
11:54 AM,78.1,66.2,67,29.82,10.0,SSW,10.4,-,N/A,,Scattered Clouds,210,2013-08-30 15:54:00
12:13 PM,77.0,67.3,72,29.85,10.0,WNW,5.8,-,N/A,Rain,Light Rain,290,2013-08-30 16:13:00
12:33 PM,74.3,68.2,81,29.85,7.0,NNW,5.8,-,0.01,Rain,Rain,330,2013-08-30 16:33:00
12:54 PM,73.4,68.5,85,29.81,7.0,SSW,3.5,-,0.04,Rain,Light Rain,200,2013-08-30 16:54:00
1:13 PM,72.5,69.3,90,29.79,10.0,Calm,Calm,-,N/A,Rain,Light Rain,0,2013-08-30 17:13:00
1:33 PM,73.4,70.2,90,29.78,7.0,SSW,3.5,-,N/A,Rain,Light Rain,210,2013-08-30 17:33:00
1:54 PM,74.1,70.7,89,29.77,7.0,South,3.5,-,0.01,,Mostly Cloudy,170,2013-08-30 17:54:00
2:13 PM,76.1,72.7,89,29.75,7.0,South,8.1,-,N/A,,Scattered Clouds,190,2013-08-30 18:13:00
2:34 PM,79.0,73.6,83,29.73,10.0,SSW,12.7,17.3,N/A,,Scattered Clouds,210,2013-08-30 18:34:00
2:54 PM,81.7,72.1,73,29.72,10.0,SW,16.1,-,N/A,,Scattered Clouds,220,2013-08-30 18:54:00
3:13 PM,81.9,71.1,70,29.72,10.0,SW,16.1,20.7,N/A,,Mostly Cloudy,220,2013-08-30 19:13:00
3:34 PM,81.0,70.7,71,29.72,10.0,WSW,13.8,19.6,N/A,,Overcast,240,2013-08-30 19:34:00
3:54 PM,79.2,72.1,79,29.73,7.0,NW,11.5,-,0.01,Rain,Heavy Rain,320,2013-08-30 19:54:00
4:13 PM,75.4,73.2,93,29.73,3.0,WNW,9.2,-,0.05,Rain,Light Rain,300,2013-08-30 20:13:00
4:34 PM,76.5,73.6,91,29.72,7.0,WNW,9.2,-,0.05,,Overcast,290,2013-08-30 20:34:00
4:54 PM,76.6,73.8,91,29.72,7.0,NW,6.9,-,0.05,,Overcast,320,2013-08-30 20:54:00
5:13 PM,76.5,72.9,89,29.73,7.0,WNW,6.9,-,N/A,,Overcast,300,2013-08-30 21:13:00
5:34 PM,75.7,72.5,90,29.73,7.0,WNW,6.9,-,N/A,,Overcast,300,2013-08-30 21:34:00
5:54 PM,75.6,72.5,90,29.73,7.0,WNW,8.1,-,N/A,,Overcast,300,2013-08-30 21:54:00
6:13 PM,76.3,72.5,88,29.74,7.0,WNW,5.8,-,N/A,,Overcast,300,2013-08-30 22:13:00
6:34 PM,77.4,73.0,86,29.75,7.0,WNW,4.6,-,N/A,,Mostly Cloudy,300,2013-08-30 22:34:00
6:54 PM,77.0,72.5,86,29.76,10.0,NNW,5.8,-,N/A,,Mostly Cloudy,330,2013-08-30 22:54:00
7:13 PM,76.5,71.1,83,29.76,10.0,NW,4.6,-,N/A,,Overcast,310,2013-08-30 23:13:00
7:34 PM,75.2,71.2,87,29.76,10.0,North,11.5,-,N/A,Rain,Light Rain,360,2013-08-30 23:34:00
7:54 PM,74.7,69.4,84,29.76,10.0,NNW,12.7,-,N/A,,Overcast,340,2013-08-30 23:54:00
8:13 PM,73.8,68.9,85,29.76,10.0,NNW,9.2,-,N/A,,Overcast,330,2013-08-31 00:13:00
8:34 PM,72.7,69.3,89,29.76,10.0,NW,8.1,-,N/A,,Mostly Cloudy,320,2013-08-31 00:34:00
8:53 PM,72.3,69.1,89,29.77,10.0,NW,6.9,-,N/A,,Mostly Cloudy,310,2013-08-31 00:53:00
9:14 PM,71.4,68.9,92,29.76,10.0,NW,8.1,-,N/A,,Scattered Clouds,320,2013-08-31 01:14:00
9:34 PM,70.7,68.4,92,29.77,10.0,WNW,5.8,-,N/A,,Scattered Clouds,300,2013-08-31 01:34:00
9:53 PM,70.5,68.0,92,29.78,10.0,NW,5.8,-,N/A,,Scattered Clouds,320,2013-08-31 01:53:00
10:14 PM,71.1,68.0,90,29.79,10.0,North,10.4,16.1,N/A,,Mostly Cloudy,350,2013-08-31 02:14:00
10:34 PM,70.9,67.5,89,29.80,10.0,North,10.4,-,N/A,,Overcast,360,2013-08-31 02:34:00
10:53 PM,70.7,67.1,88,29.80,10.0,North,8.1,-,N/A,,Overcast,350,2013-08-31 02:53:00
11:14 PM,70.2,66.9,89,29.81,10.0,North,10.4,-,N/A,,Overcast,350,2013-08-31 03:14:00
11:34 PM,69.8,66.7,90,29.81,10.0,North,6.9,-,N/A,,Overcast,350,2013-08-31 03:34:00
11:53 PM,70.2,66.4,88,29.81,10.0,NNE,11.5,-,N/A,,Overcast,20,2013-08-31 03:53:00